Find Starlink 34512

NORAD ID: 64419 Int'l Des: 2025-129 Owner: SPXS Country: US Constellation: starlink operational
LEOCIRCULAR

現在のビュー

3D地球を読み込み中...

About Starlink 34512

Starlink 34512 (NORAD 64419) is a starlink constellation satellite (v2 mini) launched Jun 17, 2025 by SPXS of US. It operates in LEO, CIRCULAR orbit with a mass of 575.00 kg.

Starlink 34512について

説明を読み込み中...

次回通過

Passes for default location (London). Set your location on the main map for personalized predictions.

高度履歴

Loading altitude history...

軌道要素

1 64419U 25129H 26195.19235220 .00001827 00000-0 16088-3 0 9994
2 64419 70.0014 115.5968 0003693 273.9133 86.1603 14.98333544 60174
Epoch: Jul 14, 2026 • Age: 11 hours

現在のステータス

高度 579.4 km
遠地点 / 近地点 N/A
速度 7.57 km/s
衛星直下点 -23.65°S, 143.98°E
打ち上げ日 Jun 17, 2025
運用期間 1 year
タイプ internet

技術仕様

分類 Payload
質量 575.00 kg
乾燥質量 530.00 kg
総質量 575.00 kg
長さ 0.30 m
直径 4.10 m
スパン 29.00 m
形状 Box + pan
製造者 SPXS
バスタイプ Starlink V2MO
フェーズステータス In Orbit
所有者/国 SPXS/US

Most Searched